Location: Unspecified
(35.6961°N, 0.0000°E)
Time: 23:46:48
(UTC+00:00)

Vanguard 3 - Pass Details

Date: 05 June 2019
Orbit: 508 x 3263 km, 33.3° (Epoch: 17 June)

Event Time Altitude Azimuth Distance (km) Brightness Sun altitude
Rises 15:30:53 0° 218° (SW) 3,065 10.5 42.4°
Reaches altitude 10° 15:34:13 10° 196° (SSW) 1,892 9.3 41.7°
Maximum altitude 15:36:47 16° 157° (SSE) 1,424 8.4 41.2°
Drops below altitude 10° 15:39:08 10° 116° (ESE) 1,713 8.5 40.7°
Sets 15:41:55 0° 93° (E) 2,625 9.3 40.2°
